Bellefontaine, OH

1:14 AM EDT on April 29, 2017 (GMT -0400)
Bellefontaine

Weather History for KEDJ - March, 2014

Change the Weather History Date:

Saturday, March 1, 2014

  Actual Average (KDLZ) Record (KDLZ)
Temperature  
Mean Temperature 37 °F -  
Max Temperature 46 °F 42 °F 68 °F (1976)
Min Temperature 28 °F 21 °F -2 °F (1980)
Degree Days  
Heating Degree Days 28    
Moisture  
Dew Point 24 °F    
Average Humidity 59    
Maximum Humidity 100    
Minimum Humidity 36    
Precipitation  
Precipitation 0.00 in - - ()
Sea Level Pressure  
Sea Level Pressure 30.09 in    
Wind  
Wind Speed 11 mph (West)    
Max Wind Speed 20 mph    
Max Gust Speed 24 mph    
Visibility 9 miles    
Events      
Averages and records for this station are not official NWS values.
T = Trace of Precipitation, MM = Missing Value Source: NWS Daily Summary

Daily Weather History Graph

Daily Weather History Graph

Search for Another Location

Airport or City:

Trip Planner

Search our weather history database for the weather conditions in past years. The results will help you decide how hot, cold, wet, or windy it might be!

Date:

Astronomy

Mar. 01, 2014 Rise Set
Actual Time 7:08 AM EST 6:26 PM EST
Civil Twilight 6:41 AM EST 6:54 PM EST
Nautical Twilight 6:10 AM EST 7:25 PM EST
Astronomical Twilight 5:38 AM EST 7:57 PM EST
Moon 7:01 AM EST (3/1) 7:13 PM EST (3/1)
Length of Visible Light 12h 12m
Length of Day
11h 17m
New Moon, 0% of the Moon is Illuminated
Mar 1
New Moon
Mar 8
First Quarter
Mar 16
Full
Mar 23
Last Quarter
Mar 30
New

Hourly Weather History & Observations

Time (EST) Temp. Windchill Dew Point Humidity Pressure Visibility Wind Dir Wind Speed Gust Speed Precip Events Conditions
8:35 AM 32.0 °F 26.4 °F 14.0 °F 48% 30.08 in 10.0 mi South 5.8 mph - 0.00 in   Overcast
8:50 AM 35.6 °F 29.2 °F 14.0 °F 41% 30.09 in 10.0 mi South 8.1 mph - 0.00 in   Mostly Cloudy
9:10 AM 37.4 °F 29.8 °F 14.0 °F 38% 30.10 in 10.0 mi SSW 11.5 mph - 0.00 in   Scattered Clouds
9:30 AM 37.4 °F 30.8 °F 14.0 °F 38% 30.09 in 10.0 mi SSW 9.2 mph - 0.00 in   Scattered Clouds
9:50 AM 39.2 °F 32.5 °F 14.0 °F 36% 30.09 in 10.0 mi SSW 10.4 mph - 0.00 in   Clear
10:10 AM 39.2 °F 31.6 °F 15.8 °F 39% 30.09 in 10.0 mi SSW 12.7 mph - 0.00 in   Clear
10:30 AM 42.8 °F 36.2 °F 17.6 °F 36% 30.09 in 10.0 mi SW 12.7 mph - 0.00 in   Partly Cloudy
10:50 AM 42.8 °F 36.2 °F 17.6 °F 36% 30.10 in 10.0 mi SW 12.7 mph - 0.00 in   Partly Cloudy
11:10 AM 44.6 °F 37.8 °F 19.4 °F 37% 30.10 in 10.0 mi SSW 15.0 mph 20.7 mph 0.00 in   Scattered Clouds
11:30 AM 42.8 °F 36.2 °F 19.4 °F 39% 30.10 in 10.0 mi SW 12.7 mph - 0.00 in   Mostly Cloudy
11:50 AM 42.8 °F 36.6 °F 19.4 °F 39% 30.10 in 10.0 mi SW 11.5 mph - 0.00 in   Mostly Cloudy
12:10 PM 42.8 °F 36.2 °F 21.2 °F 42% 30.10 in 10.0 mi SW 12.7 mph 19.6 mph 0.00 in   Scattered Clouds
12:30 PM 42.8 °F 36.2 °F 21.2 °F 42% 30.10 in 10.0 mi WSW 12.7 mph - 0.00 in   Scattered Clouds
12:50 PM 44.6 °F 38.4 °F 23.0 °F 43% 30.08 in 10.0 mi SW 12.7 mph - 0.00 in   Scattered Clouds
1:10 PM 46.4 °F 39.8 °F 23.0 °F 40% 30.07 in 10.0 mi SSW 16.1 mph 21.9 mph 0.00 in   Partly Cloudy
1:30 PM 46.4 °F 39.0 °F 26.6 °F 46% 30.05 in 10.0 mi SSW 19.6 mph 23.0 mph 0.00 in   Clear
1:50 PM 46.4 °F 39.2 °F 26.6 °F 46% 30.05 in 10.0 mi SW 18.4 mph - 0.00 in   Partly Cloudy
2:10 PM 46.4 °F 39.0 °F 26.6 °F 46% 30.05 in 10.0 mi SW 19.6 mph 24.2 mph 0.00 in   Mostly Cloudy
2:30 PM 46.4 °F 40.1 °F 26.6 °F 46% 30.05 in 10.0 mi SW 15.0 mph 23.0 mph 0.00 in   Mostly Cloudy
2:50 PM 46.4 °F 39.5 °F 26.6 °F 46% 30.04 in 10.0 mi SW 17.3 mph 20.7 mph 0.00 in   Mostly Cloudy
3:10 PM 46.4 °F 40.4 °F 28.4 °F 50% 30.04 in 10.0 mi SW 13.8 mph 19.6 mph 0.00 in   Partly Cloudy
3:30 PM 46.4 °F 40.4 °F 28.4 °F 50% 30.06 in 10.0 mi SW 13.8 mph - 0.00 in   Mostly Cloudy
3:50 PM 44.6 °F 38.1 °F 28.4 °F 53% 30.07 in 10.0 mi SW 13.8 mph - 0.00 in   Overcast
4:10 PM 44.6 °F 38.8 °F 30.2 °F 57% 30.06 in 10.0 mi SW 11.5 mph - 0.00 in   Overcast
4:30 PM 44.6 °F 38.4 °F 30.2 °F 57% 30.06 in 10.0 mi SSW 12.7 mph - 0.00 in   Overcast
4:50 PM 44.6 °F 38.8 °F 30.2 °F 57% 30.06 in 10.0 mi SW 11.5 mph - 0.00 in   Overcast
5:10 PM 42.8 °F 38.0 °F 30.2 °F 61% 30.07 in 10.0 mi SW 8.1 mph - 0.00 in   Overcast
5:30 PM 42.8 °F 38.0 °F 30.2 °F 61% 30.07 in 10.0 mi WSW 8.1 mph - 0.00 in   Overcast
5:50 PM 39.2 °F 32.0 °F 28.4 °F 65% 30.08 in 10.0 mi NNW 11.5 mph - 0.00 in   Overcast
6:10 PM 37.4 °F 30.8 °F 28.4 °F 70% 30.09 in 10.0 mi North 9.2 mph - 0.00 in   Overcast
6:30 PM 35.6 °F 29.2 °F 28.4 °F 75% 30.10 in 10.0 mi North 8.1 mph - 0.00 in   Overcast
6:50 PM 35.6 °F 29.2 °F 28.4 °F 75% 30.09 in 10.0 mi North 8.1 mph - 0.00 in   Overcast
7:10 PM 35.6 °F 28.6 °F 28.4 °F 75% 30.11 in 10.0 mi North 9.2 mph - 0.00 in   Overcast
7:30 PM 33.8 °F 24.8 °F 26.6 °F 75% 30.11 in 10.0 mi NNW 12.7 mph - 0.00 in   Overcast
7:50 PM 33.8 °F 26.4 °F 24.8 °F 70% 30.12 in 10.0 mi NNW 9.2 mph - 0.00 in   Overcast
8:10 PM 33.8 °F 26.4 °F 24.8 °F 70% 30.11 in 10.0 mi North 9.2 mph - 0.00 in   Overcast
8:30 PM 32.0 °F 26.4 °F 24.8 °F 75% 30.09 in 10.0 mi North 5.8 mph - 0.00 in   Overcast
8:50 PM 32.0 °F 24.8 °F 26.6 °F 80% 30.10 in 10.0 mi North 8.1 mph - 0.00 in   Overcast
9:10 PM 32.0 °F 24.2 °F 24.8 °F 75% 30.10 in 10.0 mi North 9.2 mph - 0.00 in   Overcast
9:30 PM 32.0 °F 24.2 °F 24.8 °F 75% 30.11 in 10.0 mi North 9.2 mph - 0.00 in   Overcast
9:50 PM 32.0 °F 24.8 °F 26.6 °F 80% 30.12 in 10.0 mi NNW 8.1 mph - 0.00 in   Overcast
10:10 PM 32.0 °F 22.1 °F 26.6 °F 80% 30.14 in 10.0 mi NNW 13.8 mph - 0.00 in   Overcast
10:30 PM 32.0 °F 22.5 °F 28.4 °F 87% 30.15 in 8.0 mi NNW 12.7 mph 16.1 mph 0.00 in   Overcast
10:50 PM 30.2 °F 19.8 °F 28.4 °F 93% 30.14 in 5.0 mi NNW 13.8 mph 18.4 mph 0.00 in   Mostly Cloudy
11:10 PM 30.2 °F 18.5 °F 28.4 °F 93% 30.14 in 3.0 mi NNW 17.3 mph 21.9 mph 0.00 in   Mostly Cloudy
11:30 PM 28.4 °F 15.8 °F 28.4 °F 100% 30.14 in 2.0 mi NNW 18.4 mph 21.9 mph 0.00 in   Mostly Cloudy
11:50 PM 28.4 °F 16.6 °F 28.4 °F 100% 30.15 in 2.0 mi North 16.1 mph - 0.00 in   Mostly Cloudy